Soldotna, AK

9:05 PM AKST on December 09, 2019 (GMT -0900)
Soldotna

Weather History for PASX - October, 2019

Change the Weather History Date:

Thursday, October 3, 2019

  Actual Average Record
Temperature  
Mean Temperature 41 °F -  
Max Temperature 55 °F 47 °F 60 °F (1954)
Min Temperature 28 °F 32 °F 13 °F (1974)
Degree Days  
Heating Degree Days 24    
Moisture  
Dew Point 34 °F    
Average Humidity 88    
Maximum Humidity 100    
Minimum Humidity 55    
Precipitation  
Precipitation 0.00 in - - ()
Sea Level Pressure  
Sea Level Pressure 30.04 in    
Wind  
Wind Speed 3 mph (ENE)    
Max Wind Speed 6 mph    
Max Gust Speed -    
Visibility 8 miles    
Events Fog    
Averages and records for this station are not official NWS values.
T = Trace of Precipitation, MM = Missing Value Source: NWS Daily Summary

Daily Weather History Graph

Daily Weather History Graph

Search for Another Location

Airport or City:

Astronomy

Oct. 03, 2019 Rise Set
Actual Time 8:14 AM AKDT 7:30 PM AKDT
Civil Twilight 7:32 AM AKDT 8:11 PM AKDT
Nautical Twilight 6:43 AM AKDT 9:01 PM AKDT
Astronomical Twilight 5:51 AM AKDT 9:52 PM AKDT
Moon 3:25 PM AKDT (10/3) 9:46 PM AKDT (10/3)
Length of Visible Light 12h 39m
Length of Day
11h 15m
Waxing Crescent, 31% of the Moon is Illuminated
Oct 3
Waxing Crescent
Oct 5
First Quarter
Oct 13
Full
Oct 21
Last Quarter
Oct 27
New

Hourly Weather History & Observations

Time (AKDT) Temp. Windchill Dew Point Humidity Pressure Visibility Wind Dir Wind Speed Gust Speed Precip Events Conditions
12:56 AM 35.1 °F 31.0 °F 34.0 °F 96% 30.04 in 10.0 mi ENE 4.6 mph - N/A   Clear
1:56 AM 33.1 °F - 32.0 °F 96% 30.05 in 10.0 mi Calm Calm - N/A   Clear
2:56 AM 30.9 °F 27.5 °F 30.0 °F 96% 30.05 in 10.0 mi East 3.5 mph - N/A   Clear
3:56 AM 30.9 °F 27.5 °F 30.0 °F 96% 30.06 in 10.0 mi East 3.5 mph - N/A   Clear
4:56 AM 30.0 °F 24.1 °F 30.0 °F 100% 30.06 in 10.0 mi ENE 5.8 mph - N/A   Clear
5:56 AM 32.0 °F - 30.9 °F 96% 30.06 in 10.0 mi Calm Calm - N/A   Partly Cloudy
6:56 AM 30.0 °F 26.5 °F 28.9 °F 96% 30.05 in 10.0 mi East 3.5 mph - N/A   Clear
7:26 AM 30.2 °F 25.4 °F 30.2 °F 100% 30.02 in 1.8 mi ENE 4.6 mph - N/A   Clear
7:34 AM 30.2 °F 25.4 °F 30.2 °F 100% 30.02 in 3.0 mi East 4.6 mph - N/A   Clear
7:56 AM 30.9 °F 27.5 °F 30.0 °F 96% 30.06 in 10.0 mi ENE 3.5 mph - N/A   Clear
8:17 AM 30.2 °F 25.4 °F 28.4 °F 93% 30.03 in 1.5 mi NE 4.6 mph - N/A   Clear
8:19 AM 30.2 °F 25.4 °F 28.4 °F 93% 30.03 in 0.8 mi ENE 4.6 mph - N/A   Clear
8:24 AM 30.2 °F 26.7 °F 28.4 °F 93% 30.03 in 0.2 mi ENE 3.5 mph - N/A Fog Light Freezing Fog
8:33 AM 30.2 °F - 28.4 °F 93% 30.03 in 0.8 mi Calm Calm - N/A   Clear
8:44 AM 28.4 °F - 28.4 °F 100% 30.04 in 1.2 mi Calm Calm - N/A   Clear
8:49 AM 28.4 °F - 28.4 °F 100% 30.04 in 4.0 mi Calm Calm - N/A   Clear
8:56 AM 28.9 °F - 28.0 °F 96% 30.07 in 10.0 mi Calm Calm - N/A   Clear
9:56 AM 34.0 °F 29.8 °F 33.1 °F 96% 30.06 in 10.0 mi East 4.6 mph - N/A   Clear
11:56 AM 46.0 °F - 39.9 °F 79% 30.07 in 10.0 mi Calm Calm - N/A   Clear
12:56 PM 48.9 °F - 41.0 °F 74% 30.06 in 10.0 mi Calm Calm - N/A   Clear
1:56 PM 50.0 °F - 39.0 °F 66% 30.05 in 10.0 mi Variable 3.5 mph - N/A   Clear
2:56 PM 52.0 °F - 39.0 °F 61% 30.05 in 10.0 mi Calm Calm - N/A   Clear
3:56 PM 54.0 °F - 37.9 °F 55% 30.04 in 10.0 mi Calm Calm - N/A   Clear
4:56 PM 53.1 °F - 37.9 °F 57% 30.04 in 10.0 mi West 4.6 mph - N/A   Mostly Cloudy
5:56 PM 52.0 °F - 41.0 °F 66% 30.03 in 10.0 mi NW 5.8 mph - N/A   Scattered Clouds
6:56 PM 50.0 °F - 42.1 °F 74% 30.03 in 10.0 mi West 4.6 mph - N/A   Clear
7:56 PM 45.0 °F - 41.0 °F 86% 30.04 in 10.0 mi Calm Calm - N/A   Clear
8:56 PM 42.1 °F - 39.0 °F 89% 30.04 in 10.0 mi Calm Calm - N/A   Mostly Cloudy
9:56 PM 42.1 °F - 39.0 °F 89% 30.04 in 10.0 mi Calm Calm - N/A   Overcast
10:56 PM 39.9 °F - 37.0 °F 89% 30.03 in 10.0 mi Calm Calm - N/A   Scattered Clouds
11:56 PM 37.9 °F - 37.0 °F 97% 30.03 in 10.0 mi Calm Calm - N/A   Clear